Regional Weather Roundup
Issued by NWS

Home | Current Version | Previous Version | Text Only | Print | Product List | Glossary On
Versions: 1 2 3 4 5 6 7 8 9 10 11 12 13 14 15 16 17 18 19 20 21 22 23 24 25 26 27 28 29 30 31 32 33 34 35 36 37 38 39 40 41 42 43 44 45 46 47 48 49 50
000
ASUS42 KTBW 021720
RWRFL
FLORIDA REGIONAL WEATHER ROUNDUP
NATIONAL WEATHER SERVICE TAMPA BAY RUSKIN FL
100 PM EDT WED SEP 02 2015

NOTE: "FAIR" INDICATES FEW OR NO CLOUDS BELOW 12,000 FEET WITH NO
SIGNIFICANT WEATHER AND/OR OBSTRUCTIONS TO VISIBILITY.


FLZ001>010-012>015-112-114-115-021800-
PANHANDLE FLORIDA

CITY           SKY/WX    TMP DP  RH WIND       PRES   REMARKS
PENSACOLA      SUNNY     90  65  43 CALM      30.07F
MILTON NAS     MOSUNNY   93  66  40 N6        30.07F HX  96
CRESTVIEW      SUNNY     93  69  45 VRB6      30.07F HX  98
DUKE FIELD     MOSUNNY   91  67  45 NW2       30.05F
VALPARAISO     PTSUNNY   92  70  49 S8        30.06F HX  97
MARY ESTHER    SUNNY     90  67  47 SW10      30.05F
PANAMA CITY    FAIR      93  70  46 NW3       30.05F HX  99
TYNDALL AFB    SUNNY     90  74  58 W6        30.06F HX  99
APALACHICOLA   PTSUNNY   88  76  67 SW7       30.05F HX  99

STATION/POSITION SKY/WX   TEMP    WIND        PRES    WAVE   SWELL
                          AIR SEA DIR/SP/G            HT/PER HT/PER
                          (F)     (DEG/KT/KT) (MB)    (FT/S) (FT/S)
30.1N   87.6W              83 86   40/  4/  6 1017.8F   1/ 5   2/ 5
29.2N   88.2W              84 87  100/  6/  8 1018.9R   1/ 5   2/ 5
28.8N   86.0W              85 88   90/  2/  4 1018.8F   1/ 6
PANAMA CITY BEAC           85 85  250/  9/ 10 1018.1S
CAPE SAN BLAS    NOT AVBL
TOWER C                    83     360/  1/  2 1018.2F
28.5N   84.5W              84 87  280/  4/  6 1018.5F   1/ 5   2/ 5

$$
FLZ011-016>038-118-127-128-134-139-239-021800-
NORTH FLORIDA

CITY           SKY/WX    TMP DP  RH WIND       PRES   REMARKS
MARIANNA       MOSUNNY   91  72  53 NW3       30.05F HX  98
TALLAHASSEE    PTSUNNY   89  73  59 CALM      30.06F HX  97
PERRY          MOSUNNY   85  75  71 W5        30.06F
CROSS CITY       N/A     88  76  67 W5        30.05F HX  99
LAKE CITY      FAIR      82  77  83 SW8       30.06F
GAINESVILLE    PTSUNNY   82  74  76 SW7       30.07F
MAYPORT NAS    CLOUDY    88  77  69 CALM      30.06F HX 100
JACKSONVILLE   CLOUDY    87  74  64 S3        30.05F HX  95
JAX NAS        PTSUNNY   91  73  55 SE7       30.06F HX  99
JAX CRAIG      PTSUNNY   90  73  57 SW7       30.06F HX  98
JAX CECIL      PTSUNNY   90  75  62 S6        30.06F HX 100
FERNANDINA BEA FAIR      90  77  66 CALM      30.05F HX 102
ST AUGUSTINE   PTSUNNY   90  76  63 VRB6      30.07F HX 101

STATION/POSITION SKY/WX   TEMP    WIND        PRES    WAVE   SWELL
                          AIR SEA DIR/SP/G            HT/PER HT/PER
                          (F)     (DEG/KT/KT) (MB)    (FT/S) (FT/S)
SHELL POINT                83     310/  2/  4   N/A
KEATON BEACH               82     270/  5/  7 1018.2F
CEDAR KEY                  85     250/  5/  7 1018.8F
FERNANDINA                 84 85  240/  2/  3 1018.3R
30.7N   81.3W                 85                N/A     2/10
MAYPORT                    85 85  240/  2/  5 1019.1F
31.4N   80.9W              82 84   50/  6/ 12 1018.8F   2/10   2/10
ST AUGUSTINE               83 83  130/  8/  9 1018.8F

$$
FLZ040-043>046-052-053-057-058-063-144-021800-
INTERIOR CENTRAL FLORIDA

CITY           SKY/WX    TMP DP  RH WIND       PRES   REMARKS
OCALA          MOSUNNY   88  73  62 SW9       30.07F HX  96
THE VILLAGES     N/A     90  77  66 S10       29.97F HX 102
LEESBURG       MOSUNNY   89  75  63 S9        30.08F HX  99
SANFORD        PTSUNNY   91  74  57 SW7       30.07F HX 100
ORLANDO EXEC   MOSUNNY   89  76  65 SW8       30.07F HX 100
ORLANDO INTL   MOSUNNY   90  74  59 S5        30.07F HX  99
KISSIMMEE      PTSUNNY   90  75  62 S7        30.08F HX 100
WINTER HAVEN   MOSUNNY   89  74  60 SW7       30.09F HX  98
LAKELAND       PTSUNNY   88  75  66 CALM      30.08F HX  97
BARTOW         PTSUNNY   90  73  58 CALM      30.09F HX  98
OKEECHOBEE     PTSUNNY   90  75  62 NW3       30.09F HX 100

$$
FLZ041-047-054-059-064-141-147-021800-
EAST CENTRAL FLORIDA

CITY           SKY/WX    TMP DP  RH WIND       PRES   REMARKS
ORMOND BEACH   MOSUNNY   90  75  62 SW6       30.07F HX 100
DAYTONA BEACH  MOSUNNY   90  74  59 SW8       30.07F HX  99
DELAND           N/A     90  75  62 W5        30.08F HX 100
TITUSVILLE     MOSUNNY   90  72  55 SW12      30.08F HX  96
CAPE CANAVERAL SUNNY     93  77  59 S5        30.06F HX 107
PATRICK AFB    SUNNY     90  75  62 VRB7      30.07F HX 101
MELBOURNE      MOSUNNY   89  73  59 W8        30.07F HX  97
VERO BEACH     MOSUNNY   92  70  48 S7        30.08F HX  97
FT PIERCE      MOSUNNY   92  73  53 NW6       30.07F HX 100
STUART         PTSUNNY   88  75  66 CALM      30.09F HX  97

STATION/POSITION SKY/WX   TEMP    WIND        PRES    WAVE   SWELL
                          AIR SEA DIR/SP/G            HT/PER HT/PER
                          (F)     (DEG/KT/KT) (MB)    (FT/S) (FT/S)
28.5N   80.2W              83 85  230/  6/  6 1019.5S
28.9N   78.5W              84 87  270/  6/  8 1019.4F
TRIDENT PIER               87 86  190/  8/ 11 1019.5F
28.4N   80.5W                 85                N/A     1/ 9
27.5N   80.2W                 85                N/A     2/10

$$
FLZ050-056-061-142-242-148-248-149-249-151-251-155-255-
160-260-021800-
WEST CENTRAL FLORIDA

CITY           SKY/WX    TMP DP  RH WIND       PRES   REMARKS
CRYSTAL RIVER  PTSUNNY   90  77  66 W9        30.08S HX 102
INVERNESS      FAIR      90  77  66 SW8       30.07F HX 102
BROOKSVILLE    MOSUNNY   90  76  63 W7        30.08F HX 101
CLEARWATER     MOSUNNY   90  74  59 W7        30.07F HX  99
TAMPA INTL     MOSUNNY   89  76  65 S7        30.08F HX 100
TAMPA EXEC     SUNNY     91  72  52 SW8       30.08F HX  98
PLANT CITY     MOSUNNY   91  77  62 W5        30.10F HX 105
MACDILL AFB    SUNNY     91  79  66 S8        30.07F HX 107
PETER O KNIGHT SUNNY     91  77  62 S7        30.08F HX 105
ST PETERSBURG  MOSUNNY   88  75  65 W8        30.06F HX  97
SARASOTA       MOSUNNY   89  76  65 W9        30.06F HX 100
VENICE         FAIR      86  77  74 W7        30.09F HX  97

STATION/POSITION SKY/WX   TEMP    WIND        PRES    WAVE   SWELL
                          AIR SEA DIR/SP/G            HT/PER HT/PER
                          (F)     (DEG/KT/KT) (MB)    (FT/S) (FT/S)
CEDAR KEY                  85     250/  5/  7 1018.8F
28.5N   84.5W              84 87  280/  4/  6 1018.5F   1/ 5   2/ 5
27.3N   84.2W                 87                N/A     1/ 4
CLEARWATER BEACH           85 85  220/  6/  7 1019.3S
MIDDLE TAMPA BAY                  250/  5/  6 1019.6S
VENICE                     87 87  260/  3/  3 1017.8F

$$
FLZ066-069-070-075>078-162-262-165-265-021800-
SOUTHWEST FLORIDA AND KEYS

CITY           SKY/WX    TMP DP  RH WIND       PRES   REMARKS
PUNTA GORDA    MOSUNNY   90  78  68 NW6       30.09F HX 104
FT MYERS       MOSUNNY   90  73  57 N3        30.06F HX  98
SOUTHWEST INTL MOSUNNY   91  73  55 NW5       30.07F HX  99
NAPLES         SUNNY     91  74  57 SW9       30.07F HX 100
MARCO ISLAND   PTSUNNY   93  73  52 SW6       30.06F HX 102
MARATHON       SUNNY     91  79  67 SE7       30.06F HX 107
KEY WEST NAS   MOSUNNY   90  76  63 S7        30.06F HX 101
KEY WEST INTL  SUNNY     89  78  70 S7        30.06F HX 103

STATION/POSITION SKY/WX   TEMP    WIND        PRES    WAVE   SWELL
                          AIR SEA DIR/SP/G            HT/PER HT/PER
                          (F)     (DEG/KT/KT) (MB)    (FT/S) (FT/S)
VENICE                     87 87  260/  3/  3 1017.8F
NAPLES                        86              1019.9F
26.0N   85.6W              83 86   90/  8/ 10 1018.4F   1/ 8   2/ 8
DRY TORTUGAS                                    N/A
NW FL BAY                  87     170/  4/  5 1018.6
SAND KEY                   86     130/  5     1018.0F
LONG KEY                   86 87  100/  3/  4 1018.8F
MOLASSES REEF              85 87  140/  5/  6 1018.1F

$$
FLZ067-068-071>074-168-172>174-021800-
SOUTHEAST FLORIDA

CITY           SKY/WX    TMP DP  RH WIND       PRES   REMARKS
W PALM BEACH   PTSUNNY   88  74  63 E9        30.08F HX  96
FT LAUDER-EXEC MOSUNNY   90  75  61 CALM      30.07F HX 100
FT LAUDERDALE  PTSUNNY   89  77  67 CALM      30.07F HX 101
POMPANO BEACH  MOSUNNY   91  75  59 SE10      30.07F HX 101
PEMBROKE PINES MOSUNNY   91  76  61 VRB3      30.08F HX 103
OPA LOCKA      CLOUDY    87  75  67 W12       30.07F HX  96
MIAMI          PTSUNNY   90  78  68 CALM      30.07F HX 104
WEST KENDALL   PTSUNNY   86  75  69 N13       30.07F THUNDER HX  95
HOMESTEAD      MOSUNNY   87  74  65 W3        30.06F HX  95

STATION/POSITION SKY/WX   TEMP    WIND        PRES    WAVE   SWELL
                          AIR SEA DIR/SP/G            HT/PER HT/PER
                          (F)     (DEG/KT/KT) (MB)    (FT/S) (FT/S)
PORT EVERGLADES            87     120/  3/  4 1019.1F
VIRGINIA KEY               85 87   90/  6/  8 1018.5F
LAKE WORTH                 85 87  130/  5/  5 1018.9F
SETTLEMENT POINT           86     240/  3/  4 1019.4F

$$




USA.gov is the U.S. government's official web portal to all federal, state and local government web resources and services.